Weather History for Stigler, OK

Change the Weather History Date:

Tuesday, September 24, 2013

  Actual Average (KJSV) Record (KJSV)
Temperature  
Mean Temperature 70 °F -  
Max Temperature 84 °F 80 °F 92 °F (1954)
Min Temperature 55 °F 58 °F 33 °F (1989)
Cooling Degree Days 4    
Growing Degree Days 20 (Base 50)    
Moisture  
Dew Point 51 °F    
Average Humidity 56    
Maximum Humidity 94    
Minimum Humidity 25    
Precipitation  
Precipitation 0.00 in - - ()
Sea Level Pressure  
Sea Level Pressure 29.89 in    
Wind  
Wind Speed 4 mph (NW)    
Max Wind Speed 16 mph    
Max Gust Speed 24 mph    
Visibility 10 miles    
Events      
Averages and records for this station are not official NWS values.
T = Trace of Precipitation, MM = Missing Value Source: NWS Daily Summary

Daily Weather History Graph

Daily Weather History Graph

Search for Another Location

Airport:

Trip Planner

Search our weather history database for the weather conditions in past years. The results will help you decide how hot, cold, wet, or windy it might be!

Date:

Astronomy

Sep. 24, 2013 Rise Set
Actual Time 7:10 AM CDT 7:13 PM CDT
Civil Twilight 6:44 AM CDT 7:39 PM CDT
Nautical Twilight 6:15 AM CDT 8:08 PM CDT
Astronomical Twilight 5:45 AM CDT 8:38 PM CDT
Moon 10:43 PM CDT (9/24) 12:14 PM CDT (9/24)
Length of Visible Light 12h 54m
Length of Day
12h 03m
Waning Gibbous, 73% of the Moon is Illuminated
Sep 24
Waning Gibbous
Sep 26
Last Quarter
Oct 4
New
Oct 11
First Quarter
Oct 18
Full

Hourly Weather History & Observations

Time (CDT) Temp. Dew Point Humidity Pressure Visibility Wind Dir Wind Speed Gust Speed Precip Events Conditions
12:15 AM 66.2 °F 50.0 °F 56% 29.89 in 10.0 mi SE 4.6 mph - N/A   Unknown
12:35 AM 66.2 °F 51.8 °F 60% 29.88 in 10.0 mi SE 3.5 mph - N/A   Unknown
12:55 AM 66.2 °F 50.0 °F 56% 29.88 in 10.0 mi SE 3.5 mph - N/A   Unknown
1:15 AM 64.4 °F 51.8 °F 64% 29.89 in 10.0 mi Calm Calm - N/A   Unknown
1:35 AM 62.6 °F 53.6 °F 72% 29.89 in 10.0 mi Calm Calm - N/A   Unknown
1:55 AM 62.6 °F 53.6 °F 72% 29.89 in 10.0 mi Calm Calm - N/A   Unknown
2:35 AM 62.6 °F 55.4 °F 77% 29.89 in 10.0 mi Calm Calm - N/A   Unknown
2:55 AM 62.6 °F 55.4 °F 77% 29.89 in 10.0 mi Calm Calm - N/A   Unknown
3:15 AM 60.8 °F 55.4 °F 82% 29.90 in 10.0 mi Calm Calm - N/A   Unknown
3:35 AM 60.8 °F 55.4 °F 82% 29.89 in 10.0 mi Calm Calm - N/A   Unknown
3:55 AM 62.6 °F 55.4 °F 77% 29.89 in 10.0 mi Calm Calm - N/A   Unknown
4:35 AM 62.6 °F 55.4 °F 77% 29.89 in 10.0 mi Calm Calm - N/A   Unknown
4:55 AM 59.0 °F 53.6 °F 82% 29.89 in 10.0 mi Calm Calm - N/A   Unknown
5:15 AM 59.0 °F 53.6 °F 82% 29.89 in 10.0 mi Calm Calm - N/A   Unknown
5:35 AM 57.2 °F 53.6 °F 88% 29.89 in 10.0 mi Calm Calm - N/A   Unknown
5:55 AM 59.0 °F 55.4 °F 88% 29.89 in 10.0 mi ESE 3.5 mph - N/A   Unknown
6:15 AM 59.0 °F 53.6 °F 82% 29.89 in 9.0 mi Calm Calm - N/A   Unknown
6:35 AM 55.4 °F 51.8 °F 88% 29.89 in 8.0 mi Calm Calm - N/A   Unknown
6:55 AM 55.4 °F 51.8 °F 88% 29.89 in 9.0 mi Calm Calm - N/A   Unknown
7:15 AM 55.4 °F 53.6 °F 94% 29.89 in 6.0 mi Calm Calm - N/A   Mist
7:35 AM 57.2 °F 53.6 °F 88% 29.89 in 2.5 mi Calm Calm - N/A   Mist
7:55 AM 59.0 °F 55.4 °F 88% 29.90 in 4.0 mi Calm Calm - N/A   Mist
8:15 AM 60.8 °F 57.2 °F 88% 29.90 in 3.0 mi Calm Calm - N/A   Mist
8:35 AM 62.6 °F 57.2 °F 82% 29.91 in 7.0 mi WNW 4.6 mph - N/A   Unknown
8:55 AM 66.2 °F 55.4 °F 68% 29.91 in 10.0 mi North 3.5 mph - N/A   Unknown
9:15 AM 68.0 °F 55.4 °F 64% 29.92 in 10.0 mi NNW 6.9 mph - N/A   Unknown
9:35 AM 71.6 °F 55.4 °F 57% 29.92 in 10.0 mi NW 5.8 mph - N/A   Unknown
9:55 AM 73.4 °F 55.4 °F 53% 29.92 in 10.0 mi West 10.4 mph 17.3 mph N/A   Unknown
10:15 AM 75.2 °F 51.8 °F 44% 29.92 in 10.0 mi West 12.7 mph 19.6 mph N/A   Unknown
10:35 AM 77.0 °F 48.2 °F 36% 29.92 in 10.0 mi NW 11.5 mph 18.4 mph N/A   Unknown
10:55 AM 77.0 °F 48.2 °F 36% 29.92 in 10.0 mi WNW 10.4 mph 18.4 mph N/A   Unknown
11:15 AM 78.8 °F 46.4 °F 32% 29.91 in 10.0 mi West 13.8 mph 18.4 mph N/A   Unknown
11:35 AM 78.8 °F 44.6 °F 30% 29.91 in 10.0 mi WNW 16.1 mph 21.9 mph N/A   Unknown
11:55 AM 80.6 °F 44.6 °F 28% 29.91 in 10.0 mi WNW 12.7 mph 20.7 mph N/A   Unknown
12:15 PM 80.6 °F 46.4 °F 30% 29.91 in 10.0 mi WNW 13.8 mph 20.7 mph N/A   Unknown
12:55 PM 80.6 °F 46.4 °F 30% 29.90 in 10.0 mi WNW 10.4 mph 19.6 mph N/A   Unknown
1:15 PM 82.4 °F 46.4 °F 28% 29.89 in 10.0 mi WNW 13.8 mph 20.7 mph N/A   Unknown
1:35 PM 82.4 °F 46.4 °F 28% 29.89 in 10.0 mi WNW 10.4 mph 19.6 mph N/A   Unknown
1:55 PM 82.4 °F 46.4 °F 28% 29.89 in 10.0 mi NW 16.1 mph 20.7 mph N/A   Unknown
2:15 PM 82.4 °F 46.4 °F 28% 29.88 in 10.0 mi NW 12.7 mph 24.2 mph N/A   Unknown
2:35 PM 82.4 °F 46.4 °F 28% 29.88 in 10.0 mi NNW 13.8 mph 19.6 mph N/A   Unknown
2:55 PM 84.2 °F 46.4 °F 27% 29.87 in 10.0 mi NW 12.7 mph 20.7 mph N/A   Unknown
3:15 PM 84.2 °F 44.6 °F 25% 29.87 in 10.0 mi WNW 13.8 mph 21.9 mph N/A   Unknown
3:35 PM 84.2 °F 44.6 °F 25% 29.87 in 10.0 mi NW 15.0 mph 21.9 mph N/A   Unknown
3:55 PM 84.2 °F 46.4 °F 27% 29.87 in 10.0 mi NW 13.8 mph 21.9 mph N/A   Unknown
4:15 PM 84.2 °F 44.6 °F 25% 29.87 in 10.0 mi NW 10.4 mph 21.9 mph N/A   Unknown
4:35 PM 84.2 °F 44.6 °F 25% 29.86 in 10.0 mi NW 12.7 mph 19.6 mph N/A   Unknown
4:55 PM 84.2 °F 46.4 °F 27% 29.86 in 10.0 mi NW 13.8 mph 21.9 mph N/A   Unknown
5:15 PM 82.4 °F 46.4 °F 28% 29.86 in 10.0 mi NW 9.2 mph 18.4 mph N/A   Unknown
5:35 PM 82.4 °F 46.4 °F 28% 29.86 in 10.0 mi NW 11.5 mph - N/A   Unknown
5:55 PM 82.4 °F 46.4 °F 28% 29.85 in 10.0 mi NW 10.4 mph 18.4 mph N/A   Unknown
6:15 PM 80.6 °F 46.4 °F 30% 29.85 in 10.0 mi NNW 9.2 mph 17.3 mph N/A   Unknown
6:35 PM 80.6 °F 48.2 °F 32% 29.86 in 10.0 mi North 8.1 mph - N/A   Unknown
6:55 PM 77.0 °F 48.2 °F 36% 29.86 in 10.0 mi NNW 5.8 mph - N/A   Unknown
7:15 PM 75.2 °F 50.0 °F 41% 29.86 in 10.0 mi North 8.1 mph - N/A   Unknown
7:35 PM 73.4 °F 50.0 °F 44% 29.86 in 10.0 mi North 4.6 mph - N/A   Unknown
7:55 PM 71.6 °F 50.0 °F 46% 29.86 in 10.0 mi North 3.5 mph - N/A   Unknown
8:15 PM 69.8 °F 50.0 °F 49% 29.86 in 10.0 mi NNE 3.5 mph - N/A   Unknown
8:35 PM 68.0 °F 51.8 °F 56% 29.87 in 10.0 mi Calm Calm - N/A   Unknown
8:55 PM 66.2 °F 51.8 °F 60% 29.87 in 10.0 mi Calm Calm - N/A   Unknown
9:15 PM 66.2 °F 51.8 °F 60% 29.87 in 10.0 mi Calm Calm - N/A   Unknown
9:35 PM 64.4 °F 53.6 °F 68% 29.87 in 8.0 mi South 3.5 mph - N/A   Unknown
9:55 PM 64.4 °F 53.6 °F 68% 29.88 in 10.0 mi Calm Calm - N/A   Unknown
10:15 PM 64.4 °F 53.6 °F 68% 29.88 in 10.0 mi Calm Calm - N/A   Unknown
10:35 PM 62.6 °F 53.6 °F 72% 29.88 in 10.0 mi Calm Calm - N/A   Unknown
10:55 PM 60.8 °F 53.6 °F 77% 29.88 in 10.0 mi Calm Calm - N/A   Unknown
11:15 PM 59.0 °F 53.6 °F 82% 29.88 in 10.0 mi Calm Calm - N/A   Unknown
11:35 PM 59.0 °F 53.6 °F 82% 29.88 in 10.0 mi Calm Calm - N/A   Unknown
11:55 PM 59.0 °F 53.6 °F 82% 29.88 in 10.0 mi Calm Calm - N/A   Unknown